ITY1467 LIRF-LIPZ

Flight info

Callsign ITY1467
Flight time 0h 53m
Altitude 34000
Route SOVAN DCT AMTEL DCT NUKNI DCT BIKTU DCT PELEG DCT SUKOM Q125 NIMUM Z43 OTGIG
Aircraft A20N/M-SDE2E3FGHIRWXY/LB1

Departure

Time 2026-05-06 14:46
Airport Rome–Fiumicino Leonardo da Vinci International Airport (LIRF)

Arrival

Time 2026-05-06 15:39
Airport Venice Marco Polo Airport (LIPZ)
Time Latitude Longitude Altitude Speed Heading
2026-05-06 14:25 41.80055 12.26544 16 ft 0 kts 249°
2026-05-06 14:39 41.80053 12.26536 15 ft 2 kts 249°
2026-05-06 14:39 41.80047 12.26490 16 ft 7 kts 294°
2026-05-06 14:40 41.80104 12.26453 16 ft 9 kts 340°
2026-05-06 14:40 41.80132 12.26393 16 ft 9 kts 250°
2026-05-06 14:40 41.80114 12.26302 16 ft 11 kts 281°
2026-05-06 14:40 41.80145 12.26201 16 ft 12 kts 295°
2026-05-06 14:41 41.80180 12.26100 16 ft 12 kts 294°
2026-05-06 14:41 41.80232 12.26046 16 ft 10 kts 13°
2026-05-06 14:41 41.80306 12.26093 16 ft 13 kts 25°
2026-05-06 14:41 41.80397 12.26148 16 ft 15 kts 24°
2026-05-06 14:42 41.80502 12.26204 16 ft 17 kts 39°
2026-05-06 14:42 41.80556 12.26349 16 ft 17 kts 70°
2026-05-06 14:42 41.80600 12.26508 15 ft 18 kts 69°
2026-05-06 14:42 41.80645 12.26670 15 ft 18 kts 70°
2026-05-06 14:43 41.80690 12.26833 14 ft 19 kts 70°
2026-05-06 14:43 41.80734 12.26994 14 ft 13 kts 70°
2026-05-06 14:43 41.80786 12.27049 13 ft 10 kts 352°
2026-05-06 14:43 41.80862 12.27014 13 ft 12 kts 340°
2026-05-06 14:44 41.80942 12.26975 13 ft 7 kts 339°
2026-05-06 14:44 41.80963 12.26945 13 ft 4 kts 253°
2026-05-06 14:44 41.80962 12.26941 13 ft 0 kts 249°
2026-05-06 14:45 41.80942 12.26872 14 ft 34 kts 248°
2026-05-06 14:45 41.80763 12.26226 16 ft 110 kts 250°
2026-05-06 14:46 41.80423 12.24994 23 ft 170 kts 245°
2026-05-06 14:46 41.80003 12.23471 620 ft 176 kts 247°
2026-05-06 14:46 41.79605 12.21957 1433 ft 175 kts 245°
2026-05-06 14:46 41.79180 12.20354 1978 ft 192 kts 253°
2026-05-06 14:47 41.79346 12.18534 2509 ft 216 kts 295°
2026-05-06 14:47 41.80277 12.16858 3183 ft 231 kts 308°
2026-05-06 14:47 41.81329 12.15240 4024 ft 235 kts 308°
2026-05-06 14:47 41.82374 12.13589 4919 ft 236 kts 307°
2026-05-06 14:48 41.83417 12.11885 5814 ft 238 kts 306°
2026-05-06 14:48 41.84619 12.10376 6663 ft 245 kts 328°
2026-05-06 14:48 41.86234 12.09547 7337 ft 259 kts 342°
2026-05-06 14:48 41.88021 12.08913 7869 ft 277 kts 343°
2026-05-06 14:49 41.89934 12.08254 8458 ft 292 kts 342°
2026-05-06 14:49 41.91922 12.07551 9294 ft 297 kts 342°
2026-05-06 14:49 41.93887 12.06845 10181 ft 299 kts 342°
2026-05-06 14:49 41.95948 12.06257 10830 ft 311 kts 347°
2026-05-06 14:50 41.98158 12.05895 11436 ft 324 kts 352°
2026-05-06 14:50 42.00394 12.05666 12218 ft 329 kts 353°
2026-05-06 14:50 42.02698 12.05451 13056 ft 331 kts 353°
2026-05-06 14:50 42.04978 12.05238 13827 ft 335 kts 353°
2026-05-06 14:51 42.07313 12.05016 14565 ft 339 kts 353°
2026-05-06 14:51 42.09670 12.04789 15255 ft 344 kts 353°
2026-05-06 14:51 42.12070 12.04556 15925 ft 349 kts 353°
2026-05-06 14:51 42.14493 12.04319 16599 ft 353 kts 353°
2026-05-06 14:52 42.16976 12.04075 17238 ft 358 kts 352°
2026-05-06 14:52 42.19451 12.03694 17878 ft 361 kts 348°
2026-05-06 14:52 42.21921 12.03164 18503 ft 365 kts 347°
2026-05-06 14:52 42.24454 12.02592 19150 ft 368 kts 346°
2026-05-06 14:53 42.26996 12.02008 19668 ft 375 kts 346°
2026-05-06 14:53 42.29570 12.01420 20209 ft 381 kts 346°
2026-05-06 14:53 42.32201 12.00823 20817 ft 385 kts 346°
2026-05-06 14:53 42.34824 12.00233 21431 ft 388 kts 346°
2026-05-06 14:54 42.37527 11.99625 22004 ft 392 kts 346°
2026-05-06 14:54 42.40223 11.99019 22566 ft 396 kts 346°
2026-05-06 14:54 42.42925 11.98411 23107 ft 400 kts 346°
2026-05-06 14:54 42.45703 11.97786 23645 ft 405 kts 345°
2026-05-06 14:55 42.48476 11.97159 24189 ft 409 kts 345°
2026-05-06 14:55 42.51277 11.96527 24728 ft 412 kts 345°
2026-05-06 14:55 42.54146 11.95878 25261 ft 416 kts 345°
2026-05-06 14:55 42.56987 11.95234 25779 ft 419 kts 345°
2026-05-06 14:56 42.59843 11.94553 26287 ft 420 kts 342°
2026-05-06 14:56 42.62714 11.93687 26788 ft 422 kts 340°
2026-05-06 14:56 42.65584 11.92756 27291 ft 424 kts 340°
2026-05-06 14:56 42.68442 11.91825 27771 ft 426 kts 340°
2026-05-06 14:57 42.71330 11.90892 28224 ft 429 kts 340°
2026-05-06 14:57 42.74250 11.89955 28657 ft 432 kts 340°
2026-05-06 14:57 42.77173 11.89019 29066 ft 434 kts 340°
2026-05-06 14:57 42.80117 11.88082 29501 ft 436 kts 340°
2026-05-06 14:58 42.83041 11.87156 30072 ft 433 kts 340°
2026-05-06 14:58 42.85991 11.86221 30651 ft 430 kts 339°
2026-05-06 14:58 42.88873 11.85305 31172 ft 428 kts 339°
2026-05-06 14:58 42.91761 11.84384 31588 ft 428 kts 339°
2026-05-06 14:59 42.94682 11.83451 31971 ft 429 kts 339°
2026-05-06 14:59 42.97570 11.82528 32347 ft 430 kts 339°
2026-05-06 14:59 43.00480 11.81600 32664 ft 432 kts 339°
2026-05-06 14:59 43.03400 11.80665 32960 ft 434 kts 339°
2026-05-06 15:00 43.06364 11.79716 33252 ft 436 kts 339°
2026-05-06 15:00 43.09309 11.78771 33563 ft 437 kts 339°
2026-05-06 15:00 43.12260 11.77827 33871 ft 438 kts 339°
2026-05-06 15:01 43.18204 11.75920 33927 ft 440 kts 339°
2026-05-06 15:01 43.24154 11.74005 33929 ft 439 kts 340°
2026-05-06 15:02 43.30097 11.72094 33923 ft 438 kts 340°
2026-05-06 15:02 43.36032 11.70179 33918 ft 439 kts 339°
2026-05-06 15:03 43.41950 11.68263 33917 ft 438 kts 339°
2026-05-06 15:03 43.47867 11.66344 33918 ft 437 kts 339°
2026-05-06 15:04 43.53787 11.64420 33913 ft 436 kts 340°
2026-05-06 15:04 43.59671 11.62502 33913 ft 436 kts 340°
2026-05-06 15:05 43.65540 11.60588 33913 ft 436 kts 340°
2026-05-06 15:05 43.71454 11.58651 33912 ft 435 kts 340°
2026-05-06 15:06 43.77335 11.56738 33907 ft 436 kts 341°
2026-05-06 15:06 43.83322 11.55464 33886 ft 439 kts 348°
2026-05-06 15:06 43.86354 11.55150 33555 ft 436 kts 350°
2026-05-06 15:07 43.89384 11.54890 32821 ft 439 kts 350°
2026-05-06 15:07 43.92428 11.54633 31978 ft 444 kts 350°
2026-05-06 15:07 43.95551 11.54363 31183 ft 447 kts 350°
2026-05-06 15:07 43.98663 11.54406 30421 ft 458 kts
2026-05-06 15:08 44.01778 11.55493 29981 ft 465 kts 18°
2026-05-06 15:08 44.07437 11.59980 29899 ft 474 kts 30°
2026-05-06 15:09 44.12905 11.64910 29595 ft 462 kts 30°
2026-05-06 15:09 44.15606 11.67299 28884 ft 464 kts 30°
2026-05-06 15:09 44.18353 11.69696 28213 ft 463 kts 30°
2026-05-06 15:09 44.21098 11.71930 27711 ft 455 kts 21°
2026-05-06 15:10 44.24077 11.73086 27167 ft 440 kts
2026-05-06 15:10 44.27064 11.72948 26665 ft 425 kts 346°
2026-05-06 15:10 44.29965 11.72324 26139 ft 421 kts 345°
2026-05-06 15:10 44.32839 11.71657 25595 ft 419 kts 345°
2026-05-06 15:11 44.35705 11.71015 25061 ft 417 kts 346°
2026-05-06 15:11 44.38558 11.70405 24553 ft 415 kts 346°
2026-05-06 15:11 44.41393 11.69818 24027 ft 412 kts 346°
2026-05-06 15:11 44.44209 11.69242 23497 ft 410 kts 346°
2026-05-06 15:12 44.47051 11.68662 22981 ft 407 kts 347°
2026-05-06 15:12 44.49826 11.68102 22542 ft 403 kts 347°
2026-05-06 15:12 44.52579 11.67563 22038 ft 401 kts 349°
2026-05-06 15:12 44.55372 11.67758 21509 ft 408 kts 11°
2026-05-06 15:13 44.57978 11.69321 21102 ft 408 kts 31°
2026-05-06 15:13 44.60315 11.71521 20698 ft 407 kts 34°
2026-05-06 15:13 44.62619 11.73789 20293 ft 404 kts 34°
2026-05-06 15:13 44.64910 11.76032 19894 ft 402 kts 34°
2026-05-06 15:14 44.67207 11.78251 19480 ft 401 kts 33°
2026-05-06 15:14 44.69495 11.80439 19057 ft 397 kts 33°
2026-05-06 15:14 44.71763 11.82593 18655 ft 394 kts 33°
2026-05-06 15:14 44.74046 11.84760 18238 ft 392 kts 33°
2026-05-06 15:15 44.76287 11.86886 17843 ft 390 kts 33°
2026-05-06 15:15 44.78536 11.89019 17447 ft 388 kts 33°
2026-05-06 15:15 44.80741 11.91116 17056 ft 386 kts 33°
2026-05-06 15:15 44.82966 11.93234 16660 ft 383 kts 33°
2026-05-06 15:16 44.85162 11.95325 16267 ft 381 kts 33°
2026-05-06 15:16 44.87346 11.97409 15868 ft 379 kts 33°
2026-05-06 15:16 44.89507 11.99472 15471 ft 375 kts 33°
2026-05-06 15:16 44.91646 12.01570 15034 ft 374 kts 36°
2026-05-06 15:17 44.93651 12.03858 14589 ft 372 kts 41°
2026-05-06 15:17 44.95584 12.06261 14171 ft 369 kts 42°
2026-05-06 15:17 44.97485 12.08669 13676 ft 369 kts 42°
2026-05-06 15:17 44.99479 12.10980 13084 ft 370 kts 30°
2026-05-06 15:18 45.01821 12.12148 12776 ft 357 kts
2026-05-06 15:18 45.04260 12.12058 12462 ft 346 kts 349°
2026-05-06 15:18 45.06581 12.11383 12120 ft 334 kts 333°
2026-05-06 15:18 45.08419 12.09592 11799 ft 316 kts 307°
2026-05-06 15:19 45.09787 12.07186 11482 ft 308 kts 302°
2026-05-06 15:19 45.10956 12.04696 11175 ft 296 kts 288°
2026-05-06 15:19 45.11242 12.01991 10978 ft 274 kts 257°
2026-05-06 15:19 45.10473 11.99666 10790 ft 258 kts 226°
2026-05-06 15:20 45.09118 11.98063 10629 ft 249 kts 220°
2026-05-06 15:20 45.08062 11.96198 10279 ft 249 kts 248°
2026-05-06 15:20 45.07948 11.93723 9714 ft 264 kts 280°
2026-05-06 15:20 45.08700 11.91340 9311 ft 271 kts 302°
2026-05-06 15:21 45.10050 11.89506 8957 ft 277 kts 324°
2026-05-06 15:21 45.11859 11.88559 8692 ft 279 kts 350°
2026-05-06 15:21 45.13781 11.88779 8466 ft 279 kts 17°
2026-05-06 15:21 45.15455 11.90151 8144 ft 279 kts 41°
2026-05-06 15:22 45.16871 11.92002 7828 ft 277 kts 43°
2026-05-06 15:22 45.18258 11.93866 7524 ft 274 kts 43°
2026-05-06 15:22 45.19648 11.95706 7205 ft 273 kts 43°
2026-05-06 15:22 45.21023 11.97498 6897 ft 270 kts 42°
2026-05-06 15:23 45.22415 11.99290 6584 ft 268 kts 42°
2026-05-06 15:23 45.23781 12.01042 6282 ft 267 kts 41°
2026-05-06 15:23 45.25150 12.02793 6026 ft 262 kts 41°
2026-05-06 15:23 45.26486 12.04504 5883 ft 254 kts 42°
2026-05-06 15:24 45.27783 12.06165 5742 ft 246 kts 41°
2026-05-06 15:24 45.29022 12.07743 5586 ft 238 kts 41°
2026-05-06 15:24 45.30240 12.09291 5421 ft 231 kts 41°
2026-05-06 15:24 45.31433 12.10806 5141 ft 231 kts 41°
2026-05-06 15:25 45.32634 12.12331 4818 ft 231 kts 41°
2026-05-06 15:25 45.33841 12.13869 4456 ft 234 kts 41°
2026-05-06 15:25 45.35062 12.15427 4063 ft 238 kts 41°
2026-05-06 15:25 45.36290 12.16984 3610 ft 240 kts 40°
2026-05-06 15:26 45.37556 12.18533 3142 ft 239 kts 40°
2026-05-06 15:26 45.38785 12.20064 2855 ft 229 kts 41°
2026-05-06 15:26 45.39946 12.21551 2479 ft 225 kts 42°
2026-05-06 15:26 45.41082 12.23029 2169 ft 215 kts 43°
2026-05-06 15:27 45.42170 12.24440 1886 ft 209 kts 43°
2026-05-06 15:27 45.43221 12.25795 1700 ft 196 kts 43°
2026-05-06 15:27 45.44191 12.27043 1409 ft 183 kts 42°
2026-05-06 15:27 45.45108 12.28222 1168 ft 171 kts 43°
2026-05-06 15:28 45.45968 12.29329 922 ft 160 kts 43°
2026-05-06 15:28 45.46827 12.30437 1170 ft 176 kts 43°
2026-05-06 15:28 45.47735 12.31607 1913 ft 178 kts 42°
2026-05-06 15:28 45.48647 12.32787 2537 ft 186 kts 42°
2026-05-06 15:29 45.49648 12.34087 3031 ft 203 kts 42°
2026-05-06 15:29 45.50739 12.35497 3545 ft 219 kts 42°
2026-05-06 15:29 45.51669 12.37231 3843 ft 234 kts 69°
2026-05-06 15:29 45.51888 12.39545 3861 ft 239 kts 102°
2026-05-06 15:30 45.51226 12.41657 3931 ft 234 kts 134°
2026-05-06 15:30 45.49910 12.42926 3965 ft 228 kts 166°
2026-05-06 15:30 45.48367 12.43192 3985 ft 225 kts 181°
2026-05-06 15:30 45.46799 12.43156 3984 ft 224 kts 185°
2026-05-06 15:31 45.45304 12.42637 3919 ft 219 kts 209°
2026-05-06 15:31 45.44064 12.41464 3773 ft 211 kts 217°
2026-05-06 15:31 45.42915 12.40189 3626 ft 204 kts 219°
2026-05-06 15:32 45.40758 12.37728 3179 ft 198 kts 219°
2026-05-06 15:32 45.39692 12.36512 2918 ft 197 kts 219°
2026-05-06 15:32 45.38630 12.35305 2713 ft 192 kts 219°
2026-05-06 15:32 45.37606 12.34131 2564 ft 185 kts 219°
2026-05-06 15:33 45.36628 12.32999 2412 ft 179 kts 219°
2026-05-06 15:33 45.35698 12.31914 2312 ft 167 kts 219°
2026-05-06 15:33 45.34783 12.30843 2013 ft 173 kts 219°
2026-05-06 15:33 45.33870 12.29712 1985 ft 176 kts 227°
2026-05-06 15:34 45.33429 12.28108 1968 ft 181 kts 268°
2026-05-06 15:34 45.33852 12.26454 1980 ft 186 kts 304°
2026-05-06 15:34 45.34744 12.25102 1991 ft 188 kts 313°
2026-05-06 15:34 45.35699 12.23830 1984 ft 187 kts 314°
2026-05-06 15:35 45.36656 12.22580 1981 ft 187 kts 316°
2026-05-06 15:35 45.37810 12.21771 1961 ft 191 kts 351°
2026-05-06 15:35 45.39122 12.21969 1977 ft 185 kts 11°
2026-05-06 15:35 45.40317 12.22551 1970 ft 184 kts 26°
2026-05-06 15:36 45.41394 12.23553 1978 ft 185 kts 37°
2026-05-06 15:36 45.42397 12.24721 1851 ft 186 kts 41°
2026-05-06 15:36 45.43343 12.25927 1614 ft 183 kts 43°
2026-05-06 15:36 45.44249 12.27111 1385 ft 170 kts 43°
2026-05-06 15:37 45.45093 12.28206 1155 ft 157 kts 43°
2026-05-06 15:37 45.45870 12.29205 935 ft 145 kts 43°
2026-05-06 15:37 45.46612 12.30159 758 ft 144 kts 44°
2026-05-06 15:37 45.47357 12.31117 570 ft 144 kts 43°
2026-05-06 15:38 45.48086 12.32056 381 ft 142 kts 44°
2026-05-06 15:38 45.48818 12.33011 197 ft 142 kts 43°
2026-05-06 15:38 45.49549 12.33944 26 ft 138 kts 44°
2026-05-06 15:38 45.50180 12.34763 13 ft 101 kts 42°
2026-05-06 15:39 45.50576 12.35268 13 ft 51 kts 43°
2026-05-06 15:39 45.50784 12.35419 13 ft 25 kts
2026-05-06 15:39 45.50908 12.35440 13 ft 10 kts 343°
2026-05-06 15:39 45.50937 12.35418 13 ft 2 kts 327°
2026-05-06 15:40 45.50959 12.35375 13 ft 9 kts 292°
2026-05-06 15:40 45.50963 12.35266 12 ft 12 kts 257°
2026-05-06 15:40 45.50911 12.35146 12 ft 16 kts 221°
2026-05-06 15:40 45.50823 12.35035 12 ft 17 kts 222°
2026-05-06 15:41 45.50735 12.34922 12 ft 17 kts 221°
2026-05-06 15:41 45.50645 12.34806 12 ft 17 kts 222°
2026-05-06 15:41 45.50605 12.34690 12 ft 9 kts 270°
2026-05-06 15:41 45.50601 12.34595 12 ft 10 kts 266°
2026-05-06 15:42 45.50597 12.34495 12 ft 10 kts 267°
2026-05-06 15:42 45.50586 12.34414 12 ft 8 kts 229°
2026-05-06 15:42 45.50535 12.34352 12 ft 9 kts 208°
2026-05-06 15:42 45.50476 12.34344 12 ft 9 kts 176°
2026-05-06 15:43 45.50404 12.34348 13 ft 11 kts 177°
2026-05-06 15:43 45.50323 12.34354 13 ft 11 kts 177°
2026-05-06 15:43 45.50280 12.34337 13 ft 5 kts 219°
2026-05-06 15:43 45.50250 12.34299 13 ft 6 kts 222°
2026-05-06 15:44 45.50210 12.34248 13 ft 9 kts 223°
2026-05-06 15:44 45.50166 12.34191 13 ft 7 kts 221°
2026-05-06 15:44 45.50130 12.34146 13 ft 5 kts 221°
2026-05-06 15:44 45.50107 12.34117 13 ft 2 kts 224°
2026-05-06 15:45 45.50111 12.34089 13 ft 4 kts 298°
2026-05-06 15:45 45.50132 12.34055 13 ft 4 kts 313°
2026-05-06 15:45 45.50146 12.34032 13 ft 1 kts 312°